Regional Weather Roundup
Issued by NWS Kansas City/Pleasant Hill, MO

Home | Current Version | Previous Version | Graphics & Text | Print | Product List | Glossary Off
Versions: 1 2 3 4 5 6 7 8 9 10 11 12 13 14 15 16 17 18 19 20 21 22 23 24 25 26 27 28

000
ASUS43 KEAX 291810
RWREAX

WEATHER ROUNDUP FOR EASTERN KANSAS AND NORTHWEST MISSOURI
NATIONAL WEATHER SERVICE KANSAS CITY/PLEASANT HILL MO
100 PM CDT SUN MAY 29 2016

KSZ040-057-103>105-MOZ028-029-037-043-291900-
...KANSAS CITY METROPOLITAN AREA...

CITY           SKY/WX    TMP DP  RH WIND       PRES   REMARKS
K.C. INTL      MOSUNNY   83  60  45 CALM      30.11F
6HR MIN TEMP:  62; 6HR MAX TEMP:  83;

K.C. DOWNTOWN  SUNNY     84  58  40 VRB3      30.10F
6HR MIN TEMP:  65; 6HR MAX TEMP:  84;

LEES SUMMIT    SUNNY     83  58  42 SW6       30.12S
6HR MIN TEMP:  64; 6HR MAX TEMP:  83;

OLATHE - IXD   SUNNY     84  57  39 SW7       30.12F
6HR MIN TEMP:  60; 6HR MAX TEMP:  84; 6HR PCP: TRACE;

OLATHE - OJC   SUNNY     82  58  43 W8        30.11F
6HR MIN TEMP:  60; 6HR MAX TEMP:  82;

LAWRENCE       SUNNY     84  59  42 VRB3      30.10F

$$

MOZ001>008-011>017-020>025-030>033-038>040-044>046-053-054-291900-
...NORTHERN AND CENTRAL MISSOURI...

CITY           SKY/WX    TMP DP  RH WIND       PRES   REMARKS
ST. JOSEPH     SUNNY     83  59  44 W8        30.09F
6HR MIN TEMP:  62; 6HR MAX TEMP:  84;

MOSBY          CLEAR     81  55  41 SW5       30.11F
WARRENSBURG    SUNNY     82  55  39 SW7       30.10F
WHITEMAN AFB   NOT AVBL
CLINTON        SUNNY     82  64  54 W7        30.12F
SEDALIA        MOSUNNY   84  58  40 W5        30.12F
6HR MIN TEMP:  65; 6HR MAX TEMP:  85;

WARSAW         NOT AVBL
CHILLICOTHE      N/A     83  64  52 VRB7      30.10F
6HR MIN TEMP:  62; 6HR MAX TEMP:  84;

KIRKSVILLE     SUNNY     81  63  54 W8        30.11F
6HR MIN TEMP:  63; 6HR MAX TEMP:  81;


$$

MOZ041-047>049-056>058-063>065-088>090-097-291900-
...EASTERN AND SOUTHERN MISSOURI...

CITY           SKY/WX    TMP DP  RH WIND       PRES   REMARKS
ST. LOUIS INTL PTSUNNY   86  57  37 NW8       30.11F
6HR MIN TEMP:  70; 6HR MAX TEMP:  86;

SPIRIT OF STL  MOSUNNY   86  60  41 W5        30.09F
COLUMBIA       MOSUNNY   83  58  42 VRB6      30.12F
JEFFERSON CITY SUNNY     83  57  41 NW7       30.11S
ROLLA          MOSUNNY   80  61  52 VRB6      30.13S
SPRINGFIELD    MOSUNNY   82  64  54 W7        30.14F
BRANSON        CLOUDY    81  59  47 CALM      30.17F
JOPLIN         SUNNY     84  66  54 W6        30.13F
WEST PLAINS    MOSUNNY   83  62  49 VRB6      30.16S

$$

IAZ060-094-KSZ022-034>040-054-083-096-NEZ052-066-093-291900-
...KANSAS...SOUTHEAST NEBRASKA AND IOWA...

CITY           SKY/WX    TMP DP  RH WIND       PRES   REMARKS
TOPEKA         SUNNY     85  55  35 W7        30.09F
6HR MIN TEMP:  61; 6HR MAX TEMP:  85;

MANHATTAN      SUNNY     85  62  46 SW6       30.09F
EMPORIA        MOSUNNY   82  61  48 VRB3      30.12S
CHANUTE        CLOUDY    83  66  56 S9        30.12S
WICHITA        CLOUDY    81  70  69 SW10      30.12R
OMAHA          MOSUNNY   78  58  49 MISG      30.07F
LINCOLN        SUNNY     83  56  39 W13       30.08F
FALLS CITY     SUNNY     83  63  50 W13       30.08F
LAMONI         SUNNY     77  64  64 SW8       30.10F
DES MOINES     MOSUNNY   79  58  48 NW9       30.08S

$$





USA.gov is the U.S. government's official web portal to all federal, state and local government web resources and services.